Tracking 30107 objects as of 26-Jan-2025
HD Live streaming from Space Station
objects crossing your sky now

CZ-4B DEB

Track CZ-4B DEB now!
10-day predictions


NORAD ID: 43660
Int'l Code: 2018-081D
Perigee: 925.3 km
Apogee: 943.5 km
Inclination: 99.2 °
Period: 103.6 minutes
Semi major axis: 7305 km
RCS: Unknown
Launch date: October 24, 2018
Source: People's Republic of China (PRC)
Launch site: Taiyaun Space Center, China (TSC)

Note: This is SATELLITE DEBRIS
Your satellite tracking list
Your tracking list is empty




NASA's NSSDC Master Catalog

Two Line Element Set (TLE):
1 43660U 18081D   25025.91318377  .00000256  00000-0  24127-3 0  9992
2 43660  99.1632  58.0385 0012398 293.0506  66.9345 13.90391551317414
Source of the keplerian elements: AFSPC